SCP
0 0 0 0 0 0 0 0 0 0 0 0 0 0 0 0 0 0 0 0 0 0 0 0 0 0 0 0 0 0 0 0 0 0 0 0 0 0 0 0 0 0 0
0 0 0 0 0 0 0 0 0 0 0 0 0 0 0 0 0 0 0 0 0 0 0 0 0 0 0 0 0 0 0 0 0 0 0 0 0 0 0 0 0 0 0
0 0 0 0 0 0 0 0 0 0 0 0 0 0 0 0 0 0 0 0 0 0 0 0 0 0 0 0 0 0 0 0 0 0 0 0 0 0 0 0 0 0 0
0 0 0 0 0 0 0 0 0 0 0 0 0 0 0 0 0 0 0 0 0 0 0 0 0 0 0 0 0 0 0 0 0 0 0 0 0 0 0 0 0 0 0
0 0 0 0 0 0 0 0 0 0 0 0 0 0 0 0 0 0 0 0 0 0 0 0 0 0 0 0 0 0 0 0 0 0 0 0 0 0 0 0 0 0 0
0 0 0 0 0 0 0 0 0 0 0 0 0 0 0 0 0 0 0 0 0 0 0 0 0 0 0 0 0 0 0 0 0 0 0 0 0 0 0 0 0 0 0
0 0 0 0 0 0 0 0 0 0 0 0 0 0 0 0 0 0 0 0 0 0 0 0 0 0 0 0 0 0 0 0 0 0 0 0 0 0 0 0 0 0 0
0 0 0 0 0 0 0 0 0 0 0 0 0 0 0 0 0 0 0 0 0 0 0 0 0 0 0 0 0 0 0 0 0 0 0 0 0 0 0 0 0 0 0
0 0 0 0 0 0 0 0 0 0 0 0 0 0 0 0 0 0 0 0 0 0 0 0 0 0 0 0 0 0 0 0 0 0 0 0 0 0 0 0 0 0 0
0 0 0 0 0 0 0 0 0 0 0 0 0 0 0 0 0 0 0 0 0 0 0 0 0 0 0 0 0 0 0 0 0 0 0 0 0 0 0 0 0 0 0
0 0 0 0 0 0 0 0 0 0 0 0 0 0 0 0 0 0 0 0 0 0 0 0 0 0 0 0 0 0 0 0 0 0 0 0 0 0 0 0 0 0 0
0 0 0 0 0 0 0 0 0 0 0 0 0 0 0 0 0 0 0 0 0 0 0 0 0 0 0 0 0 0 0 0 0 0 0 0 0 0 0 0 0 0 0
0 0 0 0 0 0 0 0 0 0 0 0 0 0 0 0 0 0 0 0 0 0 0 0 0 0 0 0 0 0 0 0 0 0 0 0 0 0 0 0 0 0 0
0 0 0 0 0 0 0 0 0 0 0 0 0 0 0 0 0 0 0 0 0 0 0 0 0 0 0 0 0 0 0 0 0 0 0 0 0 0 0 0 0 0 0
0 0 0 0 0 0 0 0 0 0 0 0 0 0 0 0 0 0 0 0 0 0 0 0 0 0 0 0 0 0 0 0 0 0 0 0 0 0 0 0 0 0 0
1 1 1 0 0 0 0 0 0 0 0 0 0 0 0 0 0 0 0 0 0 0 0 0 0 0 0 0 0 0 0 0 0 0 0 0 0 0 0 0 0 0 0
1 1 1 0 0 0 0 0 0 0 0 0 0 0 0 1 1 1 0 0 0 0 0 0 0 0 0 0 0 0 0 0 0 0 0 0 0 0 0 0 0 0 0
1 1 1 0 0 0 0 0 0 0 0 0 0 0 0 1 1 1 1 0 0 0 0 0 0 0 0 0 0 0 0 0 0 0 0 0 0 0 0 0 0 0 0
1 1 0 0 0 0 0 0 0 0 0 0 0 0 0 0 0 0 0 0 0 0 0 0 0 0 0 0 0 0 0 0 0 0 0 0 0 0 0 0 0 0 0
1 1 1 1 1 0 0 1 1 1 0 1 1 0 0 0 0 0 0 0 0 0 0 0 0 0 0 0 0 0 0 0 0 0 0 0 0 0 0 0 0 0 0
1 1 1 1 1 1 0 1 1 1 1 1 0 0 0 0 0 0 0 0 0 0 0 0 0 0 0 0 0 0 0 0 0 0 0 0 0 0 0 0 0 0 0
1 1 0 0 0 0 0 0 0 1 1 1 0 0 0 0 0 0 0 0 0 0 0 0 0 0 0 0 0 0 0 0 0 0 0 0 0 0 0 0 0 0 0
1 1 0 0 0 0 0 0 0 0 0 0 0 0 0 0 0 0 0 0 0 0 0 0 0 0 0 0 0 0 0 0 0 0 0 0 0 0 0 0 0 0 0
1 1 1 1 0 0 0 0 0 0 0 0 0 0 0 0 0 0 0 0 0 0 0 0 0 0 0 0 0 0 0 0 0 0 0 0 0 0 0 0 0 0 0
1 1 0 0 0 0 0 0 0 0 0 0 0 0 0 0 0 0 0 0 0 0 0 0 0 0 0 0 0 0 0 0 0 0 0 0 0 0 0 0 0 0 0
0 0 0 0 0 0 0 0 0 0 0 0 0 0 0 0 0 0 0 0 0 0 0 0 0 0 0 0 0 0 0 0 0 0 0 0 0 0 0 0 0 0 0
Wind_Speed
2 2 2 1 1 1 2 2 1 2 1 2 2 2 2 2 2 2 3 6 5 6 6 7 7 7 6 7 7 8 8 8 8 8 8 7 8 8 8 7 7 7 6
2 2 2 2 1 1 1 1 1 1 1 1 1 1 2 2 2 2 3 5 6 5 6 7 8 8 7 7 8 8 8 7 8 8 8 8 8 8 8 7 7 6 6
2 2 2 2 2 1 2 1 1 2 2 2 2 2 1 2 2 2 2 2 5 6 6 7 8 8 8 8 9 9 8 8 8 8 8 8 8 8 8 8 7 6 6
3 3 2 2 2 2 2 2 2 2 2 2 2 1 1 2 2 2 3 3 3 3 6 7 7 8 8 8 9 9 9 9 9 9 9 8 8 8 8 8 7 7 7
3 3 2 1 2 2 3 3 2 2 2 2 2 2 2 2 3 3 3 3 3 3 3 7 8 8 9 9 9 9 9 9 9 10 10 9 9 9 9 9 8 8 7
3 3 3 2 3 2 2 2 2 2 2 2 2 1 2 3 3 3 4 4 4 4 4 4 6 7 9 9 9 9 9 9 9 10 10 10 10 9 9 9 9 9 8
3 3 2 3 3 2 2 2 2 3 2 2 2 2 3 3 3 3 3 3 4 4 4 4 3 3 5 10 10 9 10 9 9 10 11 10 10 10 10 9 9 9 9
3 3 2 3 2 2 2 2 2 2 2 2 3 2 3 4 3 3 3 3 3 3 4 4 3 3 3 4 7 10 9 8 8 9 10 10 10 10 10 10 10 9 9
2 2 3 2 2 3 2 2 3 3 2 2 2 3 2 1 2 3 3 2 2 2 2 2 4 4 4 4 4 9 8 7 8 9 9 9 9 10 10 10 10 10 9
2 2 2 2 2 2 2 3 2 3 3 3 2 2 3 3 2 1 3 3 3 2 2 2 3 3 4 4 3 4 6 6 7 7 7 7 8 9 10 10 10 10 10
2 2 3 2 2 2 2 2 2 3 3 3 2 2 2 2 4 3 2 2 3 2 2 2 2 2 3 3 3 3 5 5 6 6 6 7 8 8 9 9 10 10 10
2 2 3 3 3 2 2 3 3 3 3 3 3 3 3 3 3 3 3 3 3 2 2 2 3 3 3 3 3 4 4 5 5 5 6 7 7 7 8 9 10 10 10
2 2 2 3 3 3 2 2 3 3 3 3 3 3 3 3 3 3 3 3 3 2 3 3 3 3 3 3 3 5 5 5 5 5 6 6 7 8 8 8 9 9 9
2 2 3 3 3 2 3 3 3 3 3 3 4 4 3 3 3 3 4 4 4 3 3 3 2 3 2 3 2 5 4 6 6 6 6 6 7 8 8 7 8 8 8
2 3 3 3 3 2 2 3 2 2 2 3 4 4 4 3 3 3 4 4 4 4 3 2 3 2 2 2 2 4 4 5 6 7 7 7 7 7 8 7 7 8 8
2 3 3 3 3 3 3 3 3 2 3 3 3 3 3 3 3 3 3 4 4 4 4 1 2 1 1 2 3 4 4 6 8 8 8 7 7 8 8 8 8 8 8
3 3 3 3 3 4 3 3 3 3 4 3 3 3 4 3 3 3 3 4 3 3 4 3 2 1 2 3 2 3 4 4 5 8 8 8 8 8 8 8 9 9 9
4 4 4 4 4 4 3 3 3 3 4 4 4 4 4 3 4 4 3 3 3 3 4 4 3 2 3 3 3 4 4 4 4 7 9 8 8 9 9 9 9 9 9
4 5 4 5 4 4 4 3 4 4 4 4 4 4 4 3 4 3 3 3 3 3 4 4 4 3 3 3 4 5 5 4 6 5 9 10 10 9 9 9 9 9 9
5 5 5 5 4 4 4 4 4 4 4 4 4 3 4 4 3 3 3 4 4 4 4 4 4 4 4 3 4 4 4 4 5 5 4 5 8 10 10 10 10 9 9
5 5 4 4 4 4 3 4 4 4 4 4 4 3 3 2 1 3 3 3 4 4 4 4 4 4 4 3 4 4 5 4 5 4 4 4 5 6 7 10 11 9 9
4 4 4 4 4 2 1 2 4 4 4 4 4 3 4 4 4 4 3 4 4 5 5 4 4 4 4 5 4 5 5 5 5 3 4 5 5 5 5 5 6 9 9
4 4 4 4 3 2 3 3 4 4 4 3 3 3 3 2 3 3 4 6 6 6 6 6 5 5 5 4 5 6 5 6 6 3 4 6 5 5 5 4 8 10 10
3 4 4 3 3 2 4 4 3 4 3 3 3 3 3 3 2 3 4 4 5 5 6 6 5 5 5 4 5 6 6 7 7 5 4 6 5 5 5 4 7 10 10
3 3 4 4 3 3 3 4 5 4 3 3 4 3 4 4 1 2 5 4 4 4 4 5 5 6 5 6 5 6 6 6 6 5 4 5 5 5 5 5 5 10 11
3 3 3 3 3 3 3 4 5 4 3 3 3 3 3 2 2 3 5 5 5 4 4 4 5 7 8 7 7 7 6 6 6 5 3 4 5 5 5 5 4 4 6
Wind_Direction
180 172 164 184 191 162 179 179 157 130 169 159 160 157 182 180 180 162 137 145 167 175 180 179 177 176 178 176 173 171 172 177 174 171 170 174 174 174 175 176 178 180 183
173 190 182 181 186 184 142 172 150 152 153 113 139 159 213 193 180 195 175 157 168 180 186 186 187 188 187 184 183 184 181 184 184 179 178 179 179 178 177 179 182 187 190
184 202 192 194 179 171 158 170 182 188 182 172 184 188 181 204 180 192 196 177 168 177 194 195 195 196 195 196 195 194 191 191 193 188 185 185 182 183 183 184 187 190 194
194 212 204 191 183 191 192 185 202 199 194 192 194 202 189 188 204 203 200 196 191 181 179 189 197 202 203 206 206 202 200 199 200 195 194 194 191 189 189 194 198 203 205
196 213 209 180 203 203 204 211 177 207 195 202 198 194 207 204 206 198 200 206 199 196 184 173 189 198 205 213 214 210 209 208 206 201 201 202 201 199 201 205 207 211 216
199 218 195 193 214 207 200 197 191 206 215 216 225 199 212 211 211 206 213 201 199 203 200 195 188 191 200 208 211 206 210 217 214 206 207 209 206 205 208 211 213 217 220
198 218 215 184 210 193 197 189 200 197 207 215 225 218 203 203 206 209 220 218 200 198 198 206 208 204 190 199 204 207 213 220 216 211 211 211 210 210 211 215 218 221 222
211 209 220 213 201 189 186 193 214 229 201 220 246 233 209 194 198 204 208 206 210 199 198 202 203 210 222 197 180 196 211 218 219 216 215 212 211 212 214 218 222 223 224
206 235 221 228 216 219 190 207 211 229 231 216 244 264 265 234 163 168 190 193 199 209 214 205 210 208 213 221 192 185 198 213 225 225 220 215 213 214 216 220 224 226 228
212 201 216 224 236 236 209 222 205 234 241 232 208 247 292 322 279 193 181 173 187 203 220 240 220 203 208 214 193 168 184 207 225 228 227 224 222 220 218 220 224 228 232
211 209 200 213 222 229 224 229 210 239 238 249 234 216 221 233 255 259 237 204 191 190 198 218 239 231 207 208 210 164 170 199 213 223 227 231 231 226 220 223 227 232 235
201 210 210 211 216 221 226 229 223 221 244 252 257 247 242 243 238 238 245 238 227 198 195 220 228 224 222 209 191 131 163 194 208 220 229 231 234 234 231 228 233 236 236
195 201 220 216 214 211 216 227 219 232 226 233 245 253 257 264 270 263 259 256 249 220 201 215 216 217 219 216 181 160 181 188 202 218 227 230 234 237 238 235 233 235 239
205 188 208 210 216 215 212 214 221 216 218 228 241 250 255 253 254 254 262 265 257 242 217 215 206 216 228 227 164 196 201 182 201 217 227 231 233 235 236 237 235 235 238
202 188 198 201 203 205 216 223 219 221 223 229 230 224 239 240 241 252 256 257 266 262 247 201 222 202 227 229 175 227 230 185 204 220 227 232 235 235 235 235 238 235 234
219 202 200 205 204 200 209 225 220 204 218 230 241 245 248 246 233 241 246 248 258 273 277 261 235 237 257 254 180 237 238 186 204 214 222 228 234 237 237 236 239 238 235
215 214 209 211 208 202 203 215 228 220 224 230 235 231 233 253 254 241 234 241 248 257 262 266 256 182 219 259 231 245 239 233 207 200 215 225 231 234 236 236 239 238 237
225 223 221 217 216 209 200 207 223 225 230 233 233 235 239 231 236 251 246 247 253 261 263 267 269 248 232 241 242 253 251 246 247 184 202 216 226 231 234 236 237 237 237
228 229 226 222 221 219 213 212 220 226 234 238 238 238 241 244 247 247 246 249 249 247 252 259 261 263 255 249 247 244 249 254 258 204 198 209 218 225 230 232 233 233 234
225 226 226 224 224 224 222 225 226 226 229 234 232 235 241 241 246 254 244 241 250 255 248 254 259 254 252 245 253 255 253 239 255 252 227 221 209 216 223 225 226 228 231
224 220 224 224 223 222 223 228 228 226 226 227 224 222 223 226 252 271 276 267 259 257 252 251 254 256 257 260 257 262 264 265 253 252 255 240 221 227 216 218 217 218 224
223 217 216 218 223 225 132 240 253 231 229 226 225 221 209 200 202 210 239 268 277 269 273 269 261 265 266 266 270 269 270 269 268 242 260 262 250 247 240 234 193 202 219
213 214 214 214 215 178 166 203 240 238 231 230 226 231 241 202 229 233 218 223 234 238 253 269 278 283 280 278 276 269 274 282 281 278 265 266 253 252 250 232 180 197 211
215 214 212 212 213 187 174 188 216 226 234 234 230 232 239 243 243 271 258 247 247 233 230 240 263 272 281 293 280 274 276 268 264 258 250 268 266 262 260 243 187 200 210
213 212 205 201 203 182 175 196 222 217 218 232 238 238 242 237 157 267 258 256 260 256 224 228 257 272 286 275 274 271 264 265 268 258 238 261 272 272 268 259 214 197 209
207 213 198 199 202 195 165 193 227 232 217 225 218 219 203 224 205 241 252 257 261 271 272 235 235 239 242 237 227 250 268 271 274 274 251 259 269 273 270 257 247 215 222